SCP
-0 -0 -0 -0 0 -0 -0 0 0 0 0 0 0 0 0 0 0 0 0 0 0 0 0 0 0 0 0 0 0 0 0 0 0 0 0 0 0 0 0 0 0 0 0
-0 -0 -1 -0 0 0 -0 0 0 0 0 0 0 0 0 0 0 0 0 0 0 0 0 0 0 0 0 0 0 0 0 0 0 0 0 0 0 0 0 0 0 0 0
-0 -0 -0 -0 0 -0 -0 -0 -0 0 0 0 0 0 0 0 0 0 0 0 0 0 0 0 0 0 0 0 0 0 0 0 0 0 0 0 0 0 0 0 0 0 0
0 0 -0 -0 -0 -0 -0 -0 -0 0 0 0 0 0 0 0 0 0 0 0 0 0 0 0 0 0 0 0 0 0 0 0 0 0 0 0 0 0 0 0 0 0 0
0 0 0 -0 0 0 -0 -0 -0 0 0 0 0 0 0 0 0 0 0 0 0 0 0 0 0 0 0 0 0 0 0 0 0 0 0 0 0 0 0 0 0 0 0
0 0 0 -0 0 0 -0 -0 -0 0 0 0 0 0 0 0 0 0 0 0 0 0 0 0 0 0 0 0 0 0 0 0 0 0 0 0 0 0 0 0 0 0 0
0 0 0 -0 0 0 0 0 0 0 0 0 0 0 0 0 0 0 0 0 0 0 0 0 0 0 0 0 0 0 0 0 0 0 0 0 0 0 0 0 0 0 0
0 0 0 0 0 0 -0 -0 0 0 1 0 0 0 0 0 0 0 0 0 0 0 0 0 0 0 0 0 0 0 0 0 0 0 0 0 0 0 0 0 1 0 0
0 0 0 0 0 1 1 0 1 1 1 1 1 0 0 0 0 0 0 0 0 0 0 0 0 0 0 0 0 0 0 0 0 0 0 0 0 0 0 0 1 1 0
0 0 0 0 0 0 0 1 1 1 1 1 1 1 1 1 0 0 0 0 0 0 0 0 0 0 0 0 0 0 0 0 0 0 0 0 0 0 0 1 1 1 1
0 0 0 0 1 0 0 1 2 2 1 1 1 1 1 0 0 0 0 1 1 0 0 0 0 0 0 0 0 0 0 0 0 0 0 0 0 0 0 0 1 0 0
0 0 0 0 1 1 0 1 1 1 1 1 1 1 1 0 0 0 0 1 1 1 1 1 1 1 0 0 0 0 0 0 0 0 0 0 0 0 0 0 0 0 0
0 0 0 0 1 1 1 1 2 3 2 3 1 2 1 1 1 1 1 1 1 1 1 1 1 1 0 0 0 0 0 0 0 0 0 0 0 0 0 0 0 0 0
0 0 0 0 1 2 1 1 0 1 2 2 2 3 2 1 1 2 1 1 1 1 1 1 1 1 1 0 0 0 0 0 0 0 0 0 0 0 0 0 0 0 0
0 0 0 0 1 1 2 1 1 1 2 2 1 2 2 1 2 2 2 1 1 1 1 1 1 1 1 1 0 0 0 0 0 0 0 0 0 0 0 0 0 0 0
0 0 0 0 1 1 2 2 2 1 2 1 1 2 1 2 2 1 2 1 1 1 1 1 2 2 1 1 0 0 0 0 0 0 0 0 0 0 0 0 0 0 0
0 0 0 0 0 2 2 2 2 1 1 1 1 2 1 2 2 3 1 1 1 1 1 2 1 1 1 1 1 1 1 0 0 0 0 0 0 0 0 0 0 0 0
0 0 0 0 0 2 2 2 1 1 1 1 1 1 1 1 1 1 1 1 1 1 1 1 1 1 1 1 1 1 1 1 0 0 0 0 0 0 0 0 0 0 0
0 0 0 0 0 1 1 1 1 1 1 1 1 1 1 1 1 1 1 1 1 1 1 1 1 1 2 1 1 1 1 1 0 0 0 0 0 0 0 0 0 0 0
0 0 0 0 0 0 0 1 1 1 0 1 1 1 1 1 1 1 1 1 1 1 1 1 1 1 1 1 1 0 0 0 0 0 0 0 0 0 0 0 0 0 0
0 0 0 0 0 0 0 1 1 1 1 1 1 1 1 1 0 0 1 1 1 1 1 1 2 1 1 1 0 0 0 0 0 0 0 0 0 0 0 0 0 0 0
0 0 0 0 0 0 0 1 1 1 1 1 1 1 1 0 1 1 1 1 1 1 1 1 1 1 1 0 1 0 0 0 0 0 0 0 0 0 0 0 0 0 0
0 0 0 0 0 0 0 1 1 2 1 1 1 1 1 0 0 1 1 1 1 1 1 1 1 1 1 0 0 0 0 0 0 0 0 0 0 0 0 0 0 0 0
0 0 0 0 0 0 0 1 1 1 1 1 1 1 0 0 0 0 0 0 0 1 1 1 1 1 1 0 0 0 0 0 0 0 0 0 0 0 0 0 0 0 0
-0 -0 0 -0 0 0 0 1 1 1 1 0 0 0 0 0 1 1 0 0 1 1 1 1 1 0 0 0 0 0 0 0 0 0 0 0 0 0 0 0 0 0 0
0 0 0 0 0 0 1 1 0 0 0 1 1 0 1 1 1 1 1 1 1 1 1 0 0 0 0 0 0 0 0 0 0 0 0 0 0 0 0 0 0 0 0
Wind_Speed_500mb
39 38 45 40 33 29 27 29 29 29 29 27 25 23 22 20 19 15 13 9 5 3 8 11 12 14 14 15 16 18 19 22 23 21 17 12 8 9 8 7 9 13 13
27 41 49 44 37 32 30 31 30 30 30 29 27 25 23 21 21 20 17 14 10 6 0 5 9 11 12 12 12 13 15 18 21 25 25 19 16 13 10 11 11 15 16
24 29 47 46 41 34 31 29 27 28 28 28 28 25 23 22 20 22 19 16 13 9 7 2 3 5 6 7 7 8 10 12 15 19 23 27 24 21 18 14 13 15 17
23 27 35 47 43 35 33 30 28 26 27 27 25 23 21 20 19 19 19 16 12 10 8 6 3 3 3 3 3 4 5 7 10 13 16 23 29 27 23 19 17 17 18
30 31 37 44 40 37 36 32 32 29 27 27 27 23 21 18 17 16 16 16 13 9 8 6 5 4 3 5 5 3 3 4 7 8 12 16 22 30 28 24 21 20 20
26 28 30 36 40 39 39 35 35 35 33 31 29 26 23 19 17 15 14 14 12 8 6 5 5 5 4 5 8 6 6 7 6 8 10 12 16 26 31 29 26 22 22
24 31 30 37 44 43 43 41 41 38 38 35 32 30 27 24 20 18 14 12 11 9 8 5 3 4 5 7 11 12 12 11 11 12 11 12 14 20 29 30 28 26 23
23 24 32 40 46 48 47 50 47 43 42 41 38 35 33 30 27 22 18 14 10 10 8 6 4 3 6 9 12 15 18 18 15 16 18 15 16 16 22 26 31 28 27
21 26 31 39 49 53 53 54 52 50 49 47 44 42 41 37 34 29 25 19 14 8 6 4 2 3 5 9 13 17 19 21 19 19 23 22 18 17 17 23 28 31 27
26 30 40 44 48 55 57 58 59 58 57 55 52 51 48 45 40 37 32 26 19 14 10 6 6 5 5 7 11 14 18 22 23 22 24 26 23 23 21 29 28 27 27
31 35 40 39 46 51 57 61 65 66 64 62 60 60 56 55 50 46 39 33 26 20 16 12 11 9 7 7 9 11 15 19 23 20 22 30 30 27 27 32 33 31 28
37 40 44 49 49 52 59 65 69 74 72 73 73 71 67 65 58 53 45 39 30 24 19 17 17 15 13 11 11 11 12 16 19 19 21 29 35 33 35 34 33 34 31
34 29 35 48 57 61 64 68 73 80 82 82 82 81 75 73 66 60 54 46 38 31 25 23 24 21 18 16 15 12 11 10 11 10 11 19 31 36 36 40 40 35 31
37 33 39 39 36 45 65 73 76 83 88 89 90 89 84 81 77 71 65 54 40 34 28 29 30 25 23 21 19 18 16 15 14 14 14 16 20 22 32 40 43 44 37
48 41 38 31 40 50 50 60 73 83 91 94 96 96 92 91 87 82 72 59 52 41 37 36 35 31 28 25 24 23 21 21 22 22 21 16 17 20 24 32 46 44 41
54 52 41 48 44 50 59 59 64 76 88 95 99 101 98 97 91 89 79 67 55 44 44 43 43 37 32 30 29 27 25 26 28 30 26 25 23 24 24 25 33 41 38
48 46 53 51 58 58 56 54 57 63 72 85 98 99 100 96 97 97 82 70 57 48 46 53 44 41 34 30 31 31 30 29 30 34 34 32 27 26 22 22 27 33 36
61 61 51 63 67 61 64 61 60 65 67 75 87 89 92 93 93 100 80 75 63 53 55 54 43 38 35 33 32 31 34 36 36 37 38 36 30 26 26 22 27 25 30
60 57 68 63 62 65 62 58 53 60 69 76 80 77 81 82 82 87 71 74 65 60 59 48 42 38 35 34 32 35 37 41 43 39 40 38 35 29 25 25 28 24 22
74 72 63 57 56 59 57 50 50 55 65 71 71 68 70 71 69 55 56 63 64 64 57 47 42 33 32 31 37 42 44 43 43 39 40 38 38 32 27 31 31 26 23
64 57 55 49 50 48 48 51 56 58 62 66 67 65 62 57 43 38 46 53 59 59 51 41 34 29 33 36 38 43 38 35 36 35 34 34 36 33 33 32 35 29 22
69 62 53 51 52 46 53 57 56 53 56 58 58 58 50 36 32 36 42 45 48 48 49 38 31 33 37 36 33 33 19 14 21 30 32 30 31 33 34 29 36 38 27
61 54 55 54 53 52 50 51 52 48 49 48 53 50 41 28 33 34 37 42 45 48 40 33 32 33 34 33 30 19 10 8 4 9 20 30 30 32 35 30 35 38 32
64 60 63 64 63 56 52 51 51 46 46 46 44 33 31 32 33 34 31 38 45 43 36 29 31 34 31 21 23 25 28 21 9 5 4 24 25 33 32 28 32 38 30
69 72 67 61 61 60 58 55 48 44 40 31 24 28 34 34 34 33 36 38 35 35 28 33 32 30 23 20 21 21 23 21 20 10 4 16 26 26 33 33 29 31 27
36 41 50 53 52 50 50 44 39 38 32 32 31 36 39 40 39 38 38 39 30 30 31 28 27 21 18 16 15 17 17 19 22 18 6 10 19 26 31 33 32 33 28
Wind_Direction_500mb
199 199 192 189 183 176 172 162 158 153 149 144 142 138 137 134 127 118 118 125 143 218 258 259 253 254 253 247 244 243 239 236 236 240 240 231 227 210 194 177 178 176 166
185 199 196 196 191 185 182 171 164 162 155 150 148 145 139 133 127 114 104 99 95 84 25 263 264 264 265 262 254 247 242 239 233 233 234 234 231 224 202 193 185 186 176
183 192 198 199 196 190 190 179 174 172 165 162 160 157 148 141 138 125 113 102 102 111 122 153 233 245 257 265 263 257 252 243 241 237 232 228 226 224 210 200 190 185 186
180 188 196 201 200 194 197 192 189 185 179 174 169 167 163 155 144 133 126 119 117 125 119 127 154 204 204 213 227 237 250 253 247 240 238 234 224 224 223 205 206 196 193
182 199 202 203 202 203 204 205 201 200 194 188 184 180 176 168 153 145 138 138 136 117 114 126 143 164 203 185 175 186 226 252 254 252 242 237 233 224 220 218 211 209 204
174 187 196 206 207 207 212 214 213 209 208 200 196 192 190 184 174 163 155 148 141 134 133 153 171 178 192 219 210 210 226 236 251 254 252 249 237 230 224 219 218 220 208
179 189 195 208 212 211 216 222 224 217 216 212 208 204 203 199 193 182 172 163 155 155 170 173 179 206 226 232 236 242 230 241 238 244 249 260 241 227 227 220 220 225 223
198 201 206 213 218 219 221 225 226 226 224 221 218 215 213 210 206 198 194 193 182 173 175 187 193 234 261 254 252 251 249 239 245 239 242 251 244 234 228 219 222 223 225
216 217 223 222 223 225 228 231 231 229 230 228 226 224 223 220 215 210 209 211 209 202 198 194 231 269 295 283 266 265 264 252 236 243 240 242 239 230 221 210 223 216 219
238 231 228 228 229 229 233 235 238 236 234 233 232 230 229 226 223 220 217 219 219 223 231 236 244 263 301 277 272 269 268 263 251 241 240 236 232 225 220 212 211 207 210
252 257 252 247 242 242 245 245 240 240 238 237 237 235 232 229 226 224 224 224 222 227 235 246 254 267 280 275 285 286 278 266 257 246 237 234 231 226 224 221 219 217 218
280 279 271 267 260 254 252 250 248 244 242 240 238 236 233 233 231 231 230 226 228 233 240 249 255 261 264 274 279 288 297 274 265 253 242 237 231 229 226 228 231 233 233
276 261 276 277 268 262 258 255 253 250 244 244 241 239 236 237 235 231 231 226 227 233 241 252 255 258 263 267 270 280 280 274 268 257 247 243 241 237 235 233 234 235 236
266 259 273 267 274 275 269 264 260 257 252 248 247 241 238 239 238 234 230 230 234 240 247 253 253 258 261 265 268 272 267 257 260 258 261 249 247 242 243 241 237 237 238
266 262 269 256 280 284 279 277 268 260 256 254 250 248 243 242 242 239 235 234 236 243 251 255 256 259 260 262 264 270 266 261 254 254 258 245 254 258 260 254 238 235 234
269 265 258 284 283 295 289 281 270 264 261 259 255 253 249 245 246 241 235 233 234 246 251 259 257 253 248 253 263 269 269 264 260 256 253 251 255 267 271 258 237 233 230
267 270 275 282 289 293 290 284 267 263 264 263 261 257 255 251 248 247 236 236 236 243 251 254 250 249 254 256 262 268 271 268 265 257 253 254 262 256 256 244 231 233 230
274 279 282 293 291 291 291 286 272 261 259 260 261 259 258 254 248 248 237 236 239 239 242 245 248 251 257 259 266 272 272 269 268 262 253 255 255 251 240 242 231 234 222
275 276 290 288 289 290 285 283 268 260 257 256 258 259 257 257 254 248 243 240 239 235 239 247 247 250 258 262 268 274 276 270 269 262 252 248 247 249 234 230 222 220 217
280 280 277 279 289 283 276 277 273 265 253 254 254 255 255 255 254 256 246 236 232 230 232 238 238 249 260 264 271 276 279 274 269 260 253 249 243 238 232 223 211 216 218
276 271 274 276 288 284 283 276 272 268 250 248 250 250 249 254 255 245 238 225 225 228 232 225 230 247 260 263 272 283 285 273 263 259 253 247 237 229 225 230 216 206 212
276 276 268 279 291 285 277 272 272 265 254 249 250 247 247 249 239 233 226 215 213 218 220 219 231 248 253 261 269 282 282 280 268 255 246 240 227 219 218 224 214 205 206
273 272 275 283 285 288 273 261 260 253 251 248 243 239 235 232 223 214 211 205 201 205 214 221 240 252 255 264 267 241 258 255 306 276 239 226 214 213 214 213 212 198 209
276 279 276 279 279 276 267 257 249 245 246 247 240 242 227 211 205 194 196 180 185 193 209 226 246 252 259 250 253 247 241 245 266 251 221 209 204 208 209 209 201 205 215
275 273 271 271 270 267 260 246 240 240 239 237 228 214 199 190 187 182 172 172 187 197 216 237 246 257 250 238 245 251 244 239 237 238 178 193 199 193 198 193 187 194 196
265 268 271 269 266 258 244 236 234 233 229 222 209 192 181 179 170 166 173 186 193 208 226 241 252 239 238 237 246 253 239 236 232 229 182 169 197 202 189 190 193 194 199
Wind_Speed_850mb
39 38 45 40 33 29 27 29 29 29 29 27 25 23 22 20 19 15 13 9 5 3 8 11 12 14 14 15 16 18 19 22 23 21 17 12 8 9 8 7 9 13 13
27 41 49 44 37 32 30 31 30 30 30 29 27 25 23 21 21 20 17 14 10 6 0 5 9 11 12 12 12 13 15 18 21 25 25 19 16 13 10 11 11 15 16
24 29 47 46 41 34 31 29 27 28 28 28 28 25 23 22 20 22 19 16 13 9 7 2 3 5 6 7 7 8 10 12 15 19 23 27 24 21 18 14 13 15 17
23 27 35 47 43 35 33 30 28 26 27 27 25 23 21 20 19 19 19 16 12 10 8 6 3 3 3 3 3 4 5 7 10 13 16 23 29 27 23 19 17 17 18
30 31 37 44 40 37 36 32 32 29 27 27 27 23 21 18 17 16 16 16 13 9 8 6 5 4 3 5 5 3 3 4 7 8 12 16 22 30 28 24 21 20 20
26 28 30 36 40 39 39 35 35 35 33 31 29 26 23 19 17 15 14 14 12 8 6 5 5 5 4 5 8 6 6 7 6 8 10 12 16 26 31 29 26 22 22
24 31 30 37 44 43 43 41 41 38 38 35 32 30 27 24 20 18 14 12 11 9 8 5 3 4 5 7 11 12 12 11 11 12 11 12 14 20 29 30 28 26 23
23 24 32 40 46 48 47 50 47 43 42 41 38 35 33 30 27 22 18 14 10 10 8 6 4 3 6 9 12 15 18 18 15 16 18 15 16 16 22 26 31 28 27
21 26 31 39 49 53 53 54 52 50 49 47 44 42 41 37 34 29 25 19 14 8 6 4 2 3 5 9 13 17 19 21 19 19 23 22 18 17 17 23 28 31 27
26 30 40 44 48 55 57 58 59 58 57 55 52 51 48 45 40 37 32 26 19 14 10 6 6 5 5 7 11 14 18 22 23 22 24 26 23 23 21 29 28 27 27
31 35 40 39 46 51 57 61 65 66 64 62 60 60 56 55 50 46 39 33 26 20 16 12 11 9 7 7 9 11 15 19 23 20 22 30 30 27 27 32 33 31 28
37 40 44 49 49 52 59 65 69 74 72 73 73 71 67 65 58 53 45 39 30 24 19 17 17 15 13 11 11 11 12 16 19 19 21 29 35 33 35 34 33 34 31
34 29 35 48 57 61 64 68 73 80 82 82 82 81 75 73 66 60 54 46 38 31 25 23 24 21 18 16 15 12 11 10 11 10 11 19 31 36 36 40 40 35 31
37 33 39 39 36 45 65 73 76 83 88 89 90 89 84 81 77 71 65 54 40 34 28 29 30 25 23 21 19 18 16 15 14 14 14 16 20 22 32 40 43 44 37
48 41 38 31 40 50 50 60 73 83 91 94 96 96 92 91 87 82 72 59 52 41 37 36 35 31 28 25 24 23 21 21 22 22 21 16 17 20 24 32 46 44 41
54 52 41 48 44 50 59 59 64 76 88 95 99 101 98 97 91 89 79 67 55 44 44 43 43 37 32 30 29 27 25 26 28 30 26 25 23 24 24 25 33 41 38
48 46 53 51 58 58 56 54 57 63 72 85 98 99 100 96 97 97 82 70 57 48 46 53 44 41 34 30 31 31 30 29 30 34 34 32 27 26 22 22 27 33 36
61 61 51 63 67 61 64 61 60 65 67 75 87 89 92 93 93 100 80 75 63 53 55 54 43 38 35 33 32 31 34 36 36 37 38 36 30 26 26 22 27 25 30
60 57 68 63 62 65 62 58 53 60 69 76 80 77 81 82 82 87 71 74 65 60 59 48 42 38 35 34 32 35 37 41 43 39 40 38 35 29 25 25 28 24 22
74 72 63 57 56 59 57 50 50 55 65 71 71 68 70 71 69 55 56 63 64 64 57 47 42 33 32 31 37 42 44 43 43 39 40 38 38 32 27 31 31 26 23
64 57 55 49 50 48 48 51 56 58 62 66 67 65 62 57 43 38 46 53 59 59 51 41 34 29 33 36 38 43 38 35 36 35 34 34 36 33 33 32 35 29 22
69 62 53 51 52 46 53 57 56 53 56 58 58 58 50 36 32 36 42 45 48 48 49 38 31 33 37 36 33 33 19 14 21 30 32 30 31 33 34 29 36 38 27
61 54 55 54 53 52 50 51 52 48 49 48 53 50 41 28 33 34 37 42 45 48 40 33 32 33 34 33 30 19 10 8 4 9 20 30 30 32 35 30 35 38 32
64 60 63 64 63 56 52 51 51 46 46 46 44 33 31 32 33 34 31 38 45 43 36 29 31 34 31 21 23 25 28 21 9 5 4 24 25 33 32 28 32 38 30
69 72 67 61 61 60 58 55 48 44 40 31 24 28 34 34 34 33 36 38 35 35 28 33 32 30 23 20 21 21 23 21 20 10 4 16 26 26 33 33 29 31 27
36 41 50 53 52 50 50 44 39 38 32 32 31 36 39 40 39 38 38 39 30 30 31 28 27 21 18 16 15 17 17 19 22 18 6 10 19 26 31 33 32 33 28
Wind_Direction_850mb
199 199 192 189 183 176 172 162 158 153 149 144 142 138 137 134 127 118 118 125 143 218 258 259 253 254 253 247 244 243 239 236 236 240 240 231 227 210 194 177 178 176 166
185 199 196 196 191 185 182 171 164 162 155 150 148 145 139 133 127 114 104 99 95 84 25 263 264 264 265 262 254 247 242 239 233 233 234 234 231 224 202 193 185 186 176
183 192 198 199 196 190 190 179 174 172 165 162 160 157 148 141 138 125 113 102 102 111 122 153 233 245 257 265 263 257 252 243 241 237 232 228 226 224 210 200 190 185 186
180 188 196 201 200 194 197 192 189 185 179 174 169 167 163 155 144 133 126 119 117 125 119 127 154 204 204 213 227 237 250 253 247 240 238 234 224 224 223 205 206 196 193
182 199 202 203 202 203 204 205 201 200 194 188 184 180 176 168 153 145 138 138 136 117 114 126 143 164 203 185 175 186 226 252 254 252 242 237 233 224 220 218 211 209 204
174 187 196 206 207 207 212 214 213 209 208 200 196 192 190 184 174 163 155 148 141 134 133 153 171 178 192 219 210 210 226 236 251 254 252 249 237 230 224 219 218 220 208
179 189 195 208 212 211 216 222 224 217 216 212 208 204 203 199 193 182 172 163 155 155 170 173 179 206 226 232 236 242 230 241 238 244 249 260 241 227 227 220 220 225 223
198 201 206 213 218 219 221 225 226 226 224 221 218 215 213 210 206 198 194 193 182 173 175 187 193 234 261 254 252 251 249 239 245 239 242 251 244 234 228 219 222 223 225
216 217 223 222 223 225 228 231 231 229 230 228 226 224 223 220 215 210 209 211 209 202 198 194 231 269 295 283 266 265 264 252 236 243 240 242 239 230 221 210 223 216 219
238 231 228 228 229 229 233 235 238 236 234 233 232 230 229 226 223 220 217 219 219 223 231 236 244 263 301 277 272 269 268 263 251 241 240 236 232 225 220 212 211 207 210
252 257 252 247 242 242 245 245 240 240 238 237 237 235 232 229 226 224 224 224 222 227 235 246 254 267 280 275 285 286 278 266 257 246 237 234 231 226 224 221 219 217 218
280 279 271 267 260 254 252 250 248 244 242 240 238 236 233 233 231 231 230 226 228 233 240 249 255 261 264 274 279 288 297 274 265 253 242 237 231 229 226 228 231 233 233
276 261 276 277 268 262 258 255 253 250 244 244 241 239 236 237 235 231 231 226 227 233 241 252 255 258 263 267 270 280 280 274 268 257 247 243 241 237 235 233 234 235 236
266 259 273 267 274 275 269 264 260 257 252 248 247 241 238 239 238 234 230 230 234 240 247 253 253 258 261 265 268 272 267 257 260 258 261 249 247 242 243 241 237 237 238
266 262 269 256 280 284 279 277 268 260 256 254 250 248 243 242 242 239 235 234 236 243 251 255 256 259 260 262 264 270 266 261 254 254 258 245 254 258 260 254 238 235 234
269 265 258 284 283 295 289 281 270 264 261 259 255 253 249 245 246 241 235 233 234 246 251 259 257 253 248 253 263 269 269 264 260 256 253 251 255 267 271 258 237 233 230
267 270 275 282 289 293 290 284 267 263 264 263 261 257 255 251 248 247 236 236 236 243 251 254 250 249 254 256 262 268 271 268 265 257 253 254 262 256 256 244 231 233 230
274 279 282 293 291 291 291 286 272 261 259 260 261 259 258 254 248 248 237 236 239 239 242 245 248 251 257 259 266 272 272 269 268 262 253 255 255 251 240 242 231 234 222
275 276 290 288 289 290 285 283 268 260 257 256 258 259 257 257 254 248 243 240 239 235 239 247 247 250 258 262 268 274 276 270 269 262 252 248 247 249 234 230 222 220 217
280 280 277 279 289 283 276 277 273 265 253 254 254 255 255 255 254 256 246 236 232 230 232 238 238 249 260 264 271 276 279 274 269 260 253 249 243 238 232 223 211 216 218
276 271 274 276 288 284 283 276 272 268 250 248 250 250 249 254 255 245 238 225 225 228 232 225 230 247 260 263 272 283 285 273 263 259 253 247 237 229 225 230 216 206 212
276 276 268 279 291 285 277 272 272 265 254 249 250 247 247 249 239 233 226 215 213 218 220 219 231 248 253 261 269 282 282 280 268 255 246 240 227 219 218 224 214 205 206
273 272 275 283 285 288 273 261 260 253 251 248 243 239 235 232 223 214 211 205 201 205 214 221 240 252 255 264 267 241 258 255 306 276 239 226 214 213 214 213 212 198 209
276 279 276 279 279 276 267 257 249 245 246 247 240 242 227 211 205 194 196 180 185 193 209 226 246 252 259 250 253 247 241 245 266 251 221 209 204 208 209 209 201 205 215
275 273 271 271 270 267 260 246 240 240 239 237 228 214 199 190 187 182 172 172 187 197 216 237 246 257 250 238 245 251 244 239 237 238 178 193 199 193 198 193 187 194 196
265 268 271 269 266 258 244 236 234 233 229 222 209 192 181 179 170 166 173 186 193 208 226 241 252 239 238 237 246 253 239 236 232 229 182 169 197 202 189 190 193 194 199